Theta_e
318 319 318 318 319 317 316 314 313 310 309 305 301 303 298 296 297 303 306 308 307 300 294 295 292 293 295 296 295 298 297 296 298 296 294 293 295 293 291 291 290 292 290 289 286 287 285 285 285 284 286 284 283 283 283 283 282 282 280 280 283 283 277 274 278 279 278 278 280 281 282 283 279 280 280 279 276 278 274 272 273 270 271 269 270 267 272
318 318 318 318 318 317 315 314 313 310 309 306 304 303 299 296 297 298 305 307 305 296 289 289 291 293 294 293 295 297 296 297 293 294 295 294 292 292 291 290 292 290 291 288 286 287 282 287 285 285 284 283 282 281 281 283 281 281 282 279 285 276 280 276 273 273 274 273 276 278 279 279 278 277 280 279 279 277 277 277 276 268 271 271 269 263 269
317 317 317 318 318 317 315 314 312 310 311 308 306 301 301 299 300 300 301 304 301 294 297 295 294 292 292 292 291 292 294 296 296 296 294 296 294 291 290 292 292 290 288 287 287 287 287 284 286 284 283 281 282 280 280 281 281 282 282 285 286 280 279 276 271 268 267 267 269 271 272 275 277 278 277 278 276 276 274 270 272 268 272 272 268 268 276
317 316 316 317 318 316 314 313 311 310 310 309 309 302 298 295 292 295 293 300 299 298 296 294 293 292 291 290 293 294 292 293 294 297 295 296 293 292 291 285 289 287 284 284 282 284 284 283 282 282 281 279 281 282 280 279 281 282 285 285 284 277 278 278 276 274 272 274 275 277 278 276 272 275 276 275 277 277 277 274 270 267 271 270 272 273 274
317 317 316 317 317 315 314 313 311 310 309 309 309 302 302 298 294 289 286 295 296 294 296 293 292 290 295 289 293 291 292 294 291 296 291 294 293 289 288 288 285 284 284 284 282 284 282 282 279 281 280 281 280 281 282 280 281 284 284 284 282 278 274 277 277 277 277 277 276 277 277 274 275 274 275 277 276 276 273 271 269 275 270 266 274 275 273
318 318 317 316 316 316 314 313 312 310 309 309 309 299 298 291 295 298 299 295 290 288 289 293 292 294 294 291 295 291 291 291 289 292 293 288 292 288 287 286 289 288 285 284 280 281 281 281 280 281 280 279 280 279 281 279 283 284 282 285 280 277 273 276 277 276 278 278 277 277 276 276 275 275 275 274 276 275 271 272 274 274 270 268 273 275 273
318 318 317 317 316 316 315 313 312 311 309 309 307 299 298 299 294 295 299 295 298 294 294 294 292 291 292 290 291 289 290 289 292 290 287 287 287 290 285 286 285 286 286 284 282 281 278 278 280 279 279 280 279 278 278 281 283 284 280 281 282 277 275 275 277 274 275 276 276 277 276 275 275 275 276 276 276 275 275 274 275 275 273 274 275 274 274
318 318 317 317 317 316 315 313 312 311 310 308 304 304 299 292 294 291 294 294 291 294 295 293 292 289 292 287 289 289 289 289 291 289 289 285 286 290 286 288 286 285 285 284 282 284 285 283 277 281 280 279 280 278 280 278 281 281 279 279 281 276 272 276 276 273 273 276 277 276 276 275 273 275 275 275 275 275 275 275 275 275 274 275 275 274 273
318 318 317 317 317 316 315 313 312 311 310 302 301 302 307 303 304 300 292 290 292 292 293 293 291 289 291 288 290 290 290 290 293 291 293 291 288 286 286 288 285 285 284 285 284 287 286 284 284 283 283 278 282 278 278 282 278 279 277 279 277 279 274 277 275 271 271 275 274 274 275 274 273 272 273 274 274 272 274 273 276 274 272 274 273 271 272
318 318 317 317 317 316 315 313 312 311 310 303 301 298 305 298 298 299 300 294 296 291 291 292 292 288 293 292 291 291 291 293 293 289 293 292 293 291 289 288 285 283 283 283 285 286 285 284 284 285 284 285 284 284 282 283 280 278 277 280 276 279 275 272 272 269 270 273 273 272 272 271 268 270 273 275 275 276 276 276 276 276 276 272 270 271 277
318 318 317 317 317 316 316 313 312 311 308 304 301 300 303 301 297 295 295 293 294 295 292 289 290 293 296 294 293 294 293 294 293 288 288 289 289 291 290 286 285 284 283 285 286 285 283 283 284 284 284 283 282 282 283 283 282 281 278 277 277 278 276 272 276 269 269 271 271 272 269 263 266 277 279 277 274 275 273 274 275 277 277 275 277 277 278
318 318 318 317 317 316 316 314 312 311 309 309 309 304 305 306 303 297 293 289 291 296 292 290 290 292 294 295 295 292 292 292 291 293 290 286 285 287 288 286 286 282 284 284 285 284 285 285 284 284 283 281 281 281 281 280 280 282 282 278 276 276 275 273 276 270 269 270 270 267 263 265 276 277 279 278 277 277 276 276 277 277 277 277 276 277 277
318 318 318 318 317 317 316 315 313 312 310 310 309 305 307 306 303 298 296 292 290 292 288 290 296 295 295 294 293 293 294 294 294 292 291 284 283 284 287 286 285 283 284 284 284 284 280 277 278 278 278 279 279 279 278 278 278 279 280 280 278 275 273 274 273 271 270 269 268 262 265 272 274 276 278 279 278 277 276 274 276 277 277 277 276 277 278
318 318 318 318 317 317 316 315 312 312 311 311 309 308 308 304 300 297 296 291 290 294 294 293 293 292 292 291 291 291 291 289 289 290 287 287 284 284 284 285 286 284 286 286 284 282 277 278 273 274 274 275 275 273 275 277 278 277 278 278 279 278 276 274 267 274 264 268 267 268 273 272 275 274 275 276 274 275 274 269 273 277 278 278 277 277 278
318 318 318 318 317 317 317 316 313 312 312 311 310 309 308 305 304 301 299 297 291 293 293 290 293 293 292 291 291 289 288 286 285 285 284 284 283 284 283 284 285 285 286 283 280 281 277 275 270 269 271 270 265 269 275 271 277 279 278 278 278 279 273 275 268 267 271 265 265 266 266 264 270 276 278 280 279 279 278 275 272 279 278 279 278 277 278
317 317 317 317 317 317 316 315 314 312 311 311 310 308 309 308 306 305 300 296 294 288 291 296 298 295 291 290 291 288 287 285 285 281 281 281 279 281 283 285 285 286 285 283 281 278 276 273 271 270 268 270 273 269 269 272 271 277 278 278 277 278 278 275 273 269 269 267 265 264 262 266 276 275 278 279 280 279 278 273 268 277 278 279 279 277 278
317 317 317 317 317 316 316 316 314 313 312 311 308 308 307 310 305 302 298 293 293 291 290 294 295 291 288 285 287 286 288 285 285 280 279 278 278 279 281 284 285 284 283 280 279 276 274 272 274 274 273 275 271 270 272 270 269 271 275 275 275 273 274 273 270 268 269 267 265 264 269 268 275 277 278 278 279 279 276 265 267 276 278 279 279 277 277
317 317 317 317 316 316 315 316 315 314 312 312 309 307 306 309 307 303 297 293 290 290 287 291 290 288 289 289 287 285 285 284 283 283 281 280 278 279 279 281 279 284 285 278 279 275 274 273 271 272 269 276 274 275 266 272 268 269 269 271 270 271 271 272 267 269 269 270 266 269 269 276 279 278 279 279 279 277 266 262 272 279 279 280 278 277 277
317 317 317 316 316 316 316 315 315 314 313 312 310 308 299 302 303 303 297 290 290 287 286 285 292 290 287 289 286 286 286 287 285 280 277 277 279 281 281 281 283 276 284 276 280 274 273 273 277 275 271 272 274 269 275 269 269 273 272 269 269 270 270 269 272 268 267 268 267 267 270 276 279 280 280 279 275 266 267 276 280 279 279 280 278 277 277
316 316 316 316 316 316 316 316 315 314 313 312 309 303 297 299 301 302 297 291 290 286 285 285 287 285 288 287 284 283 284 285 286 282 280 277 282 281 280 275 282 280 279 280 274 278 273 271 273 276 271 273 273 277 272 273 276 272 272 274 269 270 268 266 268 271 271 270 265 264 261 273 281 278 277 279 271 272 279 280 280 280 278 278 278 278 277
316 316 316 316 316 316 315 315 315 314 313 313 311 297 290 297 298 299 299 294 287 283 283 285 286 287 287 288 291 290 288 285 285 283 284 280 282 281 273 274 278 278 275 278 271 275 274 272 275 272 276 275 275 275 268 271 273 278 275 274 273 277 268 269 271 274 264 267 263 264 273 278 280 278 273 277 279 281 281 280 279 279 278 277 277 277 276
316 315 315 315 315 315 315 315 315 314 313 313 311 301 289 293 296 297 297 295 287 284 284 285 286 286 287 289 291 293 293 292 292 291 284 280 283 282 282 282 281 280 280 280 276 275 275 273 274 271 271 273 278 273 274 269 268 274 278 277 268 278 272 275 270 276 270 269 273 277 279 280 281 281 281 281 283 283 282 281 281 280 278 276 275 276 275
315 315 315 315 315 315 315 315 314 314 314 313 310 298 290 291 292 296 295 286 286 286 286 284 286 286 288 287 290 292 291 294 293 292 289 283 281 283 280 281 280 284 281 283 278 279 277 275 274 277 274 276 273 273 275 274 270 274 270 278 276 279 280 280 276 274 279 279 280 281 280 279 280 281 282 281 280 278 279 279 279 279 278 276 276 275 273
315 315 315 315 315 315 315 314 314 314 313 311 307 297 291 292 293 293 290 288 285 282 284 285 284 281 283 283 287 290 291 292 293 292 294 291 281 281 283 284 285 282 282 283 286 280 278 277 276 276 271 276 276 273 270 270 272 275 274 274 277 279 279 276 274 278 275 270 280 278 279 280 279 280 280 278 279 278 278 278 279 277 275 274 273 272 270
315 315 315 315 315 314 314 314 314 313 310 308 303 296 294 292 294 294 290 284 283 284 277 281 283 286 288 290 289 287 289 293 294 292 291 292 289 283 281 285 286 283 281 283 282 281 280 275 275 275 272 278 279 271 279 273 271 278 270 274 276 274 281 276 276 276 275 274 279 280 282 281 282 281 278 278 277 277 277 277 276 275 273 271 270 269 267
315 315 315 315 314 314 314 313 311 308 306 302 298 292 290 289 294 295 292 288 286 284 278 278 281 286 288 287 285 287 291 292 291 290 290 290 291 291 286 286 285 288 285 284 284 281 278 276 277 275 274 273 282 273 275 279 275 278 274 275 279 278 280 273 277 275 277 279 280 280 280 280 280 280 281 282 280 276 275 273 272 271 270 269 269 269 268
315 314 315 315 314 314 311 307 306 304 302 300 296 293 292 292 295 293 290 288 285 279 281 276 282 283 286 284 289 290 290 290 289 288 288 289 289 290 288 286 284 284 284 282 285 282 279 277 278 274 279 275 281 277 279 275 276 274 273 277 280 277 274 278 276 273 273 274 276 280 274 274 279 280 281 278 278 276 274 272 270 270 269 268 267 267 267
314 314 314 315 313 310 307 305 303 302 300 298 295 292 293 292 293 294 295 294 291 281 281 279 280 281 288 282 288 288 289 289 288 287 287 287 287 288 287 285 285 283 282 281 277 279 278 276 276 281 280 280 277 274 280 279 279 275 276 276 279 276 277 278 274 273 273 278 280 281 280 280 281 281 279 276 275 275 272 271 271 270 269 268 266 265 264
314 313 312 309 308 306 305 303 301 300 299 295 292 290 290 291 293 295 295 294 290 286 283 283 284 282 277 281 289 286 289 288 287 287 287 286 286 287 286 285 284 284 283 283 282 281 279 279 283 279 278 282 279 273 277 271 273 271 275 279 280 280 281 280 279 279 280 281 281 281 280 278 279 279 276 274 274 273 273 273 271 269 267 266 265 264 263
310 308 307 306 306 304 303 301 301 299 297 292 290 286 283 284 292 293 296 295 292 288 282 279 275 278 285 283 283 286 286 287 287 286 285 285 285 285 285 285 284 286 284 282 282 277 281 279 281 282 282 285 278 275 274 274 273 275 280 280 281 281 281 282 282 280 279 282 281 281 280 280 276 275 274 273 272 273 272 270 268 266 265 264 263 262 262
307 306 306 305 304 303 301 301 299 298 296 291 289 283 280 277 285 294 296 294 293 288 284 282 277 284 279 285 286 284 285 285 285 285 285 285 285 285 286 286 285 285 281 282 282 280 283 277 280 280 283 283 281 275 274 273 271 274 278 280 280 280 281 281 282 282 282 282 275 273 274 274 272 272 270 269 269 270 268 267 266 265 264 263 262 262 261
305 305 304 304 303 302 301 300 299 297 293 291 288 286 286 288 290 293 296 294 292 287 282 279 280 277 277 282 283 286 286 286 285 285 285 286 282 286 284 286 282 286 284 281 283 282 280 281 280 280 280 283 283 274 276 274 272 273 279 280 281 281 281 281 281 282 282 281 276 275 275 274 273 275 275 270 268 268 267 266 265 265 263 262 262 261 260
304 304 303 302 301 301 300 299 299 295 292 296 298 298 298 297 296 296 296 293 290 284 286 281 275 279 278 277 283 283 286 284 283 283 280 286 280 284 281 285 284 283 287 282 279 278 282 282 282 278 281 285 279 277 275 273 275 279 280 281 281 281 281 280 281 281 281 279 279 277 277 279 277 274 270 267 267 266 265 264 263 262 260 258 258 259 260
303 303 302 302 301 301 300 299 298 297 296 292 287 290 294 297 296 296 295 292 286 286 285 279 277 275 273 285 275 280 287 279 279 282 276 285 284 283 280 283 283 280 282 280 280 282 280 282 278 279 282 279 281 275 272 276 280 280 281 281 282 282 280 279 278 278 279 278 278 279 274 270 268 267 266 266 265 265 265 264 261 258 258 258 259 260 260
303 303 302 302 301 300 300 298 294 292 286 287 289 293 296 297 296 297 294 290 284 282 282 280 281 275 276 275 273 278 286 281 278 282 277 281 286 280 282 278 280 277 276 286 278 280 278 279 282 277 273 280 277 272 275 277 279 280 281 281 282 281 276 277 278 278 278 277 275 273 268 269 268 266 266 265 264 263 262 260 260 259 259 260 260 260 259
303 302 302 302 301 299 295 293 289 286 285 285 286 296 298 298 297 294 293 290 286 283 280 279 281 274 277 271 271 278 286 278 282 281 280 281 279 283 281 279 273 279 284 281 274 280 277 282 279 271 279 274 272 275 277 280 279 280 280 280 281 280 278 278 280 279 275 271 270 269 266 267 269 269 267 265 264 262 262 260 260 260 260 259 259 260 258
302 302 302 300 297 291 286 286 290 289 287 293 296 298 298 296 294 293 291 289 289 290 282 282 277 276 279 275 280 280 282 271 283 277 280 277 275 280 277 276 273 279 275 272 275 276 279 285 277 272 274 273 275 280 281 281 280 280 280 281 281 281 281 280 279 273 268 265 264 265 266 265 265 265 266 265 263 263 262 260 260 259 257 258 258 257 257
302 301 297 293 289 285 284 285 285 293 298 297 297 292 289 289 282 284 285 283 284 288 281 285 278 281 282 278 273 283 281 276 283 274 276 280 275 272 278 275 274 279 268 273 274 282 278 277 274 273 274 279 280 281 281 281 282 282 282 282 281 280 280 278 272 270 266 264 265 264 262 261 262 263 263 263 263 261 262 262 261 260 259 258 258 257 256
299 295 288 286 286 284 285 286 295 298 296 295 291 285 282 285 282 279 278 283 284 279 282 283 279 282 279 277 278 287 280 278 276 276 272 280 274 268 277 269 275 277 266 270 272 283 269 271 270 271 272 276 277 279 282 282 282 282 282 282 282 281 280 276 274 274 273 274 275 273 270 269 267 266 264 264 263 263 262 261 259 258 257 257 256 256 255
292 286 285 286 285 285 291 295 298 294 291 284 285 283 278 284 278 272 284 275 276 281 284 278 284 281 281 278 278 278 286 280 274 274 275 277 285 272 277 272 273 274 266 270 273 280 270 268 268 267 269 275 277 280 281 281 281 282 282 282 281 281 280 277 274 277 278 278 276 275 274 274 273 272 268 265 263 261 259 258 258 257 256 255 255 255 254
287 286 286 284 286 289 291 294 292 287 284 282 281 279 279 276 278 279 281 275 276 277 285 282 283 279 282 282 282 277 285 284 281 281 279 274 282 277 272 271 280 269 267 270 274 268 266 263 262 263 270 277 278 279 280 280 280 280 281 281 280 279 279 278 277 277 276 275 268 266 265 265 266 268 267 265 263 261 259 257 256 255 255 255 255 254 254
288 287 288 289 289 290 289 286 285 283 281 283 277 274 278 277 280 276 279 274 275 279 279 282 278 279 278 282 280 282 280 283 281 280 276 272 281 275 273 271 274 269 266 273 272 265 267 264 267 265 270 275 278 279 279 278 279 278 278 276 276 276 276 276 276 274 273 273 268 264 261 261 261 262 263 263 262 260 257 256 255 254 254 254 254 253 253
294 291 290 286 285 283 285 279 282 281 275 275 273 271 277 273 275 275 276 280 279 279 279 284 282 286 284 285 280 283 280 284 279 277 275 273 280 275 271 271 271 267 271 270 269 265 264 265 263 270 278 278 279 278 278 278 279 277 275 274 274 273 274 274 273 269 265 265 263 261 259 259 258 258 259 259 257 256 255 255 254 253 253 253 253 252 252
289 288 284 282 282 280 283 272 283 275 272 276 273 269 274 271 274 276 272 275 276 277 282 278 279 279 276 283 279 278 280 280 281 274 272 276 272 270 271 268 270 273 272 265 265 265 268 267 271 275 279 278 278 277 277 277 276 273 268 266 267 267 268 267 264 262 260 259 259 259 258 256 256 256 256 257 257 255 253 252 252 252 252 252 251 251 251
284 282 282 280 275 279 278 268 282 273 271 274 278 274 276 271 275 277 275 278 280 278 282 282 282 280 278 279 279 280 281 275 283 273 271 275 269 273 269 268 271 270 269 266 262 259 259 263 271 272 274 276 277 277 275 274 271 273 269 262 263 264 264 264 263 262 259 259 258 258 256 256 256 256 255 255 254 254 253 251 252 252 252 251 251 250 251
282 280 280 274 271 278 276 272 276 267 273 279 276 277 278 278 279 277 277 278 280 281 280 282 282 281 278 280 278 277 276 276 275 274 275 273 270 269 271 270 270 267 265 262 261 265 268 273 276 276 277 277 278 274 271 270 267 266 266 265 262 261 262 262 261 260 259 258 258 258 256 256 255 255 253 253 253 253 252 252 253 252 251 251 250 250 251
282 282 277 277 274 277 278 271 274 275 278 278 277 279 280 280 280 280 278 281 282 283 283 284 282 281 278 276 274 274 274 277 274 276 274 269 269 271 275 270 267 268 266 265 266 267 270 274 277 279 279 278 276 270 266 265 264 265 268 266 262 260 260 260 259 258 258 258 258 257 257 256 255 253 252 251 251 251 252 252 252 252 251 250 250 251 251
276 282 280 271 270 276 273 274 277 274 274 278 280 280 280 280 279 277 277 282 283 283 281 280 277 279 276 278 278 275 275 273 272 273 274 271 272 266 267 266 265 269 269 268 270 273 275 277 278 279 278 275 273 268 264 263 262 263 264 263 261 259 259 259 258 257 257 257 257 257 256 255 253 253 253 252 250 251 251 251 252 252 251 251 251 251 251
283 281 274 273 276 276 277 278 277 277 277 279 279 279 279 279 279 280 280 283 283 281 283 280 279 279 274 277 275 275 270 275 270 271 272 269 268 265 267 263 265 264 269 270 273 276 277 279 274 271 270 269 269 270 269 265 264 263 263 263 260 260 259 258 258 257 257 257 257 256 255 254 253 253 252 251 250 251 252 252 252 252 252 251 252 252 251
279 276 276 273 273 273 274 279 278 274 275 277 278 278 280 280 279 279 283 282 282 282 282 282 282 277 274 273 269 272 271 274 271 273 268 268 268 268 266 261 266 267 271 273 273 276 279 274 270 269 265 266 264 266 265 263 262 262 261 261 259 259 258 257 256 256 256 257 256 255 254 253 253 252 251 252 252 252 252 252 252 252 252 252 252 252 251
282 278 276 279 277 276 278 274 274 273 274 276 278 278 280 279 279 278 283 282 282 280 279 276 276 272 271 270 271 267 269 275 270 270 270 270 271 268 268 268 270 272 275 278 278 278 276 270 272 270 263 261 263 263 262 260 259 258 258 257 257 257 256 256 256 256 256 256 255 256 254 254 254 253 253 253 252 252 252 252 253 252 252 252 253 252 251
277 273 275 276 275 278 280 281 281 279 278 279 279 280 282 279 280 281 284 283 281 278 276 274 272 271 270 269 272 272 272 270 269 271 267 270 271 266 268 272 275 276 277 275 272 267 263 262 262 263 263 263 261 258 256 256 255 255 255 255 255 255 255 255 255 255 255 254 254 254 254 254 254 254 254 253 252 252 251 252 253 253 252 253 252 251 251
Wind_Speed
22 22 22 22 21 19 20 21 21 20 20 8 5 3 2 5 4 3 3 2 7 3 5 1 2 4 3 5 4 3 2 4 4 6 3 3 4 2 5 7 5 8 9 5 5 8 7 7 8 2 4 2 1 5 5 6 5 2 2 2 3 3 3 3 7 1 3 2 3 4 4 7 7 4 5 5 6 6 5 7 7 9 8 7 9 13 11
22 22 22 23 23 23 25 22 23 22 22 10 7 4 3 3 2 2 3 3 5 5 11 7 8 7 4 4 6 2 4 7 5 9 10 8 5 7 6 0 13 5 4 4 9 8 5 8 11 4 4 2 4 3 4 4 5 5 4 4 6 3 5 6 3 3 4 3 2 2 1 1 3 5 7 7 4 4 4 5 4 5 10 11 7 11 6
24 23 22 23 25 26 24 24 24 24 22 12 9 6 3 2 1 2 2 2 6 10 8 10 9 10 10 8 10 5 5 6 12 12 11 7 6 4 5 7 4 6 5 5 4 7 14 2 3 3 3 2 2 3 2 3 2 2 3 5 2 2 2 4 4 7 9 7 4 3 7 9 5 4 6 7 8 6 5 5 7 9 6 9 8 11 13
26 25 24 24 21 21 25 27 27 26 23 16 8 5 3 4 4 3 1 3 5 6 3 3 9 10 8 10 14 9 12 3 5 9 14 11 6 9 3 2 3 4 4 6 7 9 2 8 1 3 3 3 2 3 1 1 1 2 2 1 2 0 1 6 9 10 10 8 3 6 5 3 7 6 8 9 9 10 9 5 5 11 8 10 15 17 18
26 26 27 26 25 23 23 25 27 26 23 20 9 3 2 1 7 6 4 3 9 8 3 7 5 11 8 8 5 14 16 8 3 10 8 10 13 4 7 7 8 6 6 12 8 8 4 1 1 6 5 1 2 2 3 1 3 6 3 1 3 2 3 9 11 14 11 6 8 1 1 8 9 8 12 9 11 10 10 11 10 6 7 13 14 10 11
27 26 26 27 29 30 31 30 28 27 24 21 9 6 4 6 4 7 7 7 7 10 12 10 11 12 9 11 5 9 10 12 12 4 10 5 7 9 3 9 17 14 16 7 6 7 11 6 11 5 3 5 4 3 3 4 4 6 1 2 4 3 4 4 6 10 9 8 9 7 6 8 7 9 13 15 10 10 13 14 15 13 10 15 13 13 18
27 27 27 25 25 26 28 30 30 31 28 21 11 8 5 3 2 2 2 9 9 12 8 15 18 17 17 8 13 14 15 20 14 8 5 5 8 16 13 16 17 18 11 11 11 10 7 11 6 7 6 9 7 6 2 6 6 6 4 3 2 2 5 3 5 5 6 6 9 8 9 8 9 12 16 15 10 12 14 14 14 16 18 19 18 19 22
28 28 28 28 27 26 27 29 29 27 28 20 13 14 9 8 8 4 4 5 2 1 7 10 14 15 18 13 17 15 19 25 11 6 12 9 11 10 19 17 13 17 15 15 14 17 16 8 9 7 10 4 5 6 5 5 6 5 6 4 5 5 3 7 2 2 6 9 10 11 10 9 11 12 17 16 13 14 14 12 13 13 16 18 16 17 17
29 28 28 29 29 30 30 32 32 31 27 12 14 10 13 3 8 7 6 7 10 8 6 8 12 11 12 14 19 16 24 24 17 17 13 21 13 13 27 20 8 11 14 16 20 10 9 4 7 12 15 12 8 10 4 10 9 9 5 4 3 5 3 4 2 3 5 7 9 9 8 8 10 12 20 17 12 13 10 8 8 9 11 13 14 13 12
31 30 29 29 29 31 31 32 34 32 32 16 10 13 6 3 4 2 7 13 10 11 8 11 7 16 16 15 21 15 19 18 11 14 11 15 15 14 17 14 11 7 13 21 19 7 6 7 3 6 2 4 4 1 4 11 11 8 8 4 4 5 4 3 2 4 5 5 5 2 2 6 10 13 19 16 13 12 9 9 9 12 13 11 9 12 11
31 31 31 31 30 31 32 33 36 37 26 17 14 10 10 15 10 2 4 14 11 15 10 13 18 20 11 15 20 17 16 15 15 18 6 5 10 6 10 13 13 7 18 6 7 13 11 9 9 7 8 7 6 4 5 3 5 10 9 4 3 2 5 2 3 4 1 5 1 3 4 9 7 0 6 7 8 8 10 9 9 11 10 9 9 12 12
32 32 32 32 32 32 33 34 38 40 33 22 16 14 13 11 9 8 10 16 21 12 13 18 21 17 17 18 14 16 20 18 17 15 20 2 1 4 9 8 9 7 5 12 13 15 12 10 10 9 9 9 8 7 5 7 2 2 6 9 6 7 5 4 3 3 3 2 2 5 11 10 4 5 3 2 4 8 11 11 12 12 12 13 14 13 11
33 33 33 32 32 33 34 34 38 38 37 21 17 17 14 15 14 11 9 13 16 15 14 21 23 22 18 10 12 17 13 10 11 12 9 7 5 5 4 6 12 5 11 13 14 13 10 7 7 6 6 6 5 6 4 1 3 3 1 2 8 7 7 4 3 3 3 2 5 5 4 5 2 7 7 1 4 8 7 12 12 13 13 11 12 11 10
33 33 33 34 34 35 35 36 37 42 43 31 19 19 13 15 13 11 10 6 15 15 21 16 17 21 15 16 15 8 4 8 3 5 10 2 8 10 2 2 5 13 11 14 11 11 7 4 3 4 2 4 1 2 5 3 6 7 6 5 2 8 4 5 1 4 6 5 7 10 7 10 11 8 4 7 6 3 5 8 9 4 8 8 8 9 11
33 33 33 33 34 34 36 37 38 41 42 40 21 18 15 16 17 15 9 10 16 13 13 17 22 17 13 16 14 14 11 4 7 5 3 4 4 1 2 3 10 12 12 11 6 2 4 4 4 4 3 6 6 6 5 4 4 10 7 5 4 7 9 4 6 6 5 5 6 7 5 7 3 6 4 5 4 2 3 5 12 7 7 6 3 10 10
33 33 32 33 33 34 35 34 34 37 37 39 23 19 19 20 19 15 12 14 12 17 17 24 19 8 12 12 16 19 14 8 7 4 4 3 4 5 5 7 8 12 6 4 3 6 4 7 6 9 8 7 4 6 5 7 3 8 9 7 5 5 6 6 7 5 1 4 7 6 6 5 3 11 9 4 7 5 4 2 12 5 10 5 6 8 9
33 32 32 33 33 34 35 34 36 39 40 39 22 19 18 19 15 15 12 5 6 14 6 5 8 7 6 5 4 5 9 9 10 6 4 5 5 6 7 6 2 6 8 7 4 4 6 3 4 3 1 6 7 5 6 6 8 5 10 8 9 9 8 7 9 10 9 4 5 8 4 5 3 8 5 10 7 7 1 6 5 10 7 6 5 5 8
32 32 32 32 31 30 29 31 32 33 35 39 27 18 17 16 17 13 6 7 12 11 2 2 12 7 14 9 8 4 8 8 6 4 4 5 6 6 8 7 6 3 2 9 6 6 6 6 10 7 7 4 4 7 7 10 8 12 10 12 8 8 8 11 13 11 11 13 10 7 7 8 12 11 7 10 10 8 3 10 4 4 3 3 2 5 6
33 33 33 33 32 32 32 31 31 31 35 37 27 17 3 5 11 13 7 3 8 11 4 4 1 5 3 8 4 4 1 9 11 9 7 6 4 7 11 0 4 6 7 7 5 7 8 8 3 4 5 5 7 7 6 7 7 7 13 11 5 7 5 4 8 10 14 12 9 8 10 13 11 7 7 10 7 5 11 2 4 2 2 2 2 5 5
32 32 32 32 32 32 32 31 30 30 30 33 26 17 3 10 13 20 17 13 7 4 6 7 4 12 5 12 11 8 6 5 7 9 11 8 11 18 7 3 5 4 4 7 7 5 6 10 7 4 4 7 6 5 2 4 7 12 8 11 9 12 9 8 10 7 7 9 6 1 8 6 11 11 6 9 7 7 2 2 2 4 3 3 3 4 6
32 33 33 32 32 32 32 32 31 30 31 35 31 9 5 5 8 9 7 5 7 6 3 2 1 8 6 10 13 18 17 16 14 10 6 7 16 13 12 12 13 11 10 10 12 11 6 9 8 4 3 6 5 5 7 5 6 8 11 10 5 9 5 4 6 9 6 10 9 10 10 4 10 12 7 9 14 3 2 1 4 5 4 4 3 5 4
32 32 33 33 33 33 32 32 32 31 32 33 33 10 5 5 6 7 8 8 4 3 2 4 2 4 3 2 3 2 7 14 19 16 14 11 12 10 1 8 13 10 5 5 4 2 2 3 2 4 6 4 3 8 6 6 7 5 3 7 3 13 9 8 6 7 8 8 9 7 7 5 9 8 3 5 4 0 4 5 4 3 2 3 2 5 3
33 33 34 34 34 34 33 34 34 33 32 31 28 13 13 13 9 11 13 8 3 4 2 3 4 4 3 1 2 3 4 2 6 5 14 14 9 6 4 7 9 2 1 2 7 5 6 8 7 4 3 6 9 5 9 7 4 6 8 10 1 2 5 2 4 6 6 8 4 6 6 8 9 6 2 5 4 2 4 6 4 4 3 4 4 3 3
32 33 34 34 34 34 34 34 33 31 28 30 26 14 9 12 13 14 8 5 4 6 3 0 6 7 9 9 6 2 4 4 6 6 3 14 12 4 1 3 3 3 2 3 1 6 5 3 4 3 6 5 8 8 9 8 9 7 6 5 7 8 4 4 8 2 4 9 10 13 15 10 11 10 1 2 2 5 5 5 5 2 3 3 3 3 3
34 34 34 34 34 34 34 33 33 28 27 28 18 7 12 11 12 17 18 14 9 11 7 6 7 1 6 7 8 5 2 3 4 6 4 3 9 11 7 5 3 5 8 6 2 6 2 5 2 3 7 5 10 8 6 6 4 10 6 7 5 8 8 4 10 9 12 10 6 10 3 3 6 6 6 5 5 5 5 3 2 2 2 2 2 2 4
34 34 34 34 32 32 31 28 23 25 26 28 29 22 20 18 14 9 10 9 8 5 6 6 5 6 9 10 7 3 6 7 7 7 6 3 2 5 9 6 3 3 5 3 4 7 3 3 2 1 6 5 6 5 6 6 2 3 10 9 9 3 7 5 7 10 10 11 13 13 5 5 8 9 8 7 6 7 7 6 5 4 4 3 3 4 3
35 35 33 31 32 30 22 24 31 30 30 28 14 10 11 10 11 14 16 15 14 2 3 3 4 5 6 8 5 7 9 8 7 7 6 5 5 5 7 8 7 5 7 3 1 3 1 1 3 4 4 4 3 3 3 1 5 5 5 7 4 4 9 5 3 7 9 10 13 8 4 6 7 10 11 7 7 9 8 7 5 6 5 5 5 4 4
35 34 34 31 26 24 27 31 33 32 28 23 14 11 11 10 7 6 6 3 8 5 7 6 7 6 6 3 5 9 9 9 7 6 6 6 6 7 8 8 7 6 6 7 5 5 5 6 8 3 3 1 3 3 3 2 4 1 8 10 11 10 10 9 10 9 10 14 11 6 8 9 6 5 6 7 8 9 9 9 8 7 7 6 6 5 4
34 30 25 27 29 32 36 37 37 35 33 22 14 13 9 4 3 4 4 5 10 9 9 7 6 8 8 7 10 8 9 10 10 8 7 8 9 8 8 8 7 6 6 3 3 2 5 4 3 4 4 4 5 3 5 6 9 9 10 13 13 13 9 12 15 13 13 11 3 7 6 9 4 5 9 9 8 9 8 7 6 7 7 6 6 5 5
21 23 29 27 36 39 37 38 38 35 30 18 13 7 6 1 4 7 7 8 10 7 8 7 6 3 4 5 10 9 10 11 10 11 12 10 11 11 10 10 8 7 4 6 6 6 5 3 2 1 2 2 5 3 3 5 8 8 10 14 15 11 11 13 13 13 13 10 3 8 7 2 4 4 5 7 6 7 6 7 8 7 6 6 5 4 3
29 34 35 36 41 39 38 38 37 37 27 15 13 6 6 5 9 13 12 11 7 9 6 5 6 3 5 1 6 13 13 12 12 11 12 8 6 6 6 8 3 7 8 4 4 4 3 4 5 4 3 5 4 3 4 6 5 4 15 15 14 13 12 13 11 11 12 10 4 5 4 4 6 5 1 6 7 7 5 5 7 6 7 6 5 5 4
36 38 39 37 38 39 38 38 37 31 16 14 12 8 4 4 12 19 16 9 9 8 8 10 5 4 4 4 6 7 12 12 11 7 6 6 6 6 6 5 8 4 5 5 4 3 4 4 5 5 6 9 6 1 4 6 9 11 9 13 13 11 10 10 10 11 11 7 4 2 4 6 7 10 6 11 11 8 7 9 9 9 8 5 4 4 4
22 28 30 32 35 36 35 35 33 16 10 8 12 9 15 27 36 30 15 11 6 3 2 6 6 4 4 7 6 6 11 9 8 9 7 6 7 6 6 3 5 2 3 5 4 5 3 5 3 5 5 5 4 3 4 8 14 14 11 12 10 10 11 8 9 9 10 8 9 12 13 8 8 5 6 11 11 10 10 11 10 8 6 5 5 5 4
25 27 28 29 31 32 31 30 23 16 10 8 5 3 10 29 29 26 14 7 5 3 3 5 5 5 4 2 7 6 10 10 8 11 7 6 7 6 7 7 6 6 5 6 3 3 2 3 7 5 5 6 6 2 6 12 16 14 15 14 10 9 7 6 7 8 9 8 8 6 2 6 8 8 9 9 9 8 9 8 9 8 6 5 4 4 3
26 27 30 32 31 32 33 29 15 8 5 4 4 4 15 31 25 22 13 8 11 3 3 1 3 7 5 3 5 7 9 9 8 9 7 3 6 7 6 5 5 7 5 3 3 4 6 5 6 5 5 6 5 5 10 12 12 15 14 13 10 7 4 5 9 10 7 4 4 4 6 8 10 8 8 9 9 10 10 8 8 8 7 5 5 5 4
28 28 28 30 32 26 17 11 4 6 3 4 4 14 27 27 25 14 6 3 2 5 6 4 5 7 8 9 9 6 8 5 4 4 3 4 3 2 4 4 5 4 3 4 4 8 7 6 4 4 6 6 9 10 13 13 13 14 14 14 9 10 11 14 12 5 4 3 4 5 5 4 8 7 7 8 9 10 10 10 9 6 6 6 7 6 4
26 27 29 30 18 9 7 5 3 1 4 8 14 25 28 19 7 6 2 2 2 1 5 6 6 7 7 7 4 3 8 9 7 6 6 5 6 1 4 3 7 3 4 1 3 7 5 6 3 4 8 11 11 12 13 10 10 13 15 11 7 10 11 10 7 9 7 4 3 3 3 6 6 4 6 8 10 10 11 12 13 11 10 9 8 7 6
26 27 17 12 7 7 4 4 5 10 21 27 28 15 8 5 5 5 2 3 3 2 1 1 5 5 4 7 7 9 9 7 7 7 2 4 6 1 2 3 4 5 4 4 4 5 3 1 5 8 9 9 8 12 16 14 13 12 11 8 10 10 11 8 11 10 7 1 3 6 4 6 9 8 11 12 11 13 11 8 8 6 5 6 7 6 5
23 11 5 1 5 5 5 5 13 25 18 12 5 3 3 1 5 3 4 3 3 4 4 5 7 8 10 6 4 5 7 9 10 6 7 6 5 3 1 5 6 3 2 0 4 7 3 3 2 4 9 7 8 19 22 16 11 11 12 12 11 12 10 12 16 17 16 15 16 15 16 15 15 16 13 13 8 6 7 8 7 7 7 7 7 6 6
8 7 7 7 4 3 10 20 31 16 7 5 1 3 5 4 6 4 2 5 2 2 5 7 6 7 12 14 13 7 6 10 11 11 9 5 1 7 3 3 4 4 4 5 3 5 6 6 3 1 9 7 14 21 19 15 13 14 12 13 12 13 14 15 16 14 16 15 8 6 10 11 9 10 12 14 14 14 10 8 7 7 10 9 8 7 6
5 4 4 5 5 6 10 13 8 5 4 3 2 1 2 4 3 3 4 6 6 4 3 5 8 8 9 10 12 11 5 6 2 4 5 5 2 6 3 4 3 4 4 6 1 4 2 1 2 6 10 9 13 18 18 12 11 14 11 9 9 11 13 15 18 16 13 11 6 4 3 4 5 5 9 13 14 14 14 13 14 13 11 9 9 7 6
4 5 5 8 6 8 8 3 2 4 1 1 3 4 3 2 2 2 2 9 8 4 4 7 11 12 12 14 9 9 4 1 4 3 4 5 4 5 4 1 1 4 4 3 5 2 3 3 5 7 10 14 17 15 11 10 11 11 8 7 9 10 12 14 14 11 10 11 7 6 5 5 6 5 8 10 11 13 16 13 11 10 9 7 7 6 6
21 15 11 7 4 3 1 4 3 3 5 4 4 4 3 6 6 9 4 1 1 4 4 4 4 8 5 7 5 2 4 3 5 2 3 5 2 3 4 2 2 4 4 4 3 3 5 6 7 12 11 13 15 13 12 13 12 4 3 8 10 10 12 13 11 8 4 6 8 8 8 8 7 6 7 11 13 12 7 8 11 11 9 8 7 6 5
10 6 5 0 4 4 3 6 3 4 1 1 6 9 8 7 7 6 6 6 4 5 7 11 11 16 9 2 7 5 3 2 2 3 2 1 4 3 3 4 5 0 4 2 2 6 8 5 9 11 12 10 8 7 10 10 7 4 3 3 4 6 6 6 8 10 7 6 8 8 10 10 10 8 8 9 13 16 12 10 9 11 10 9 7 6 5
6 2 3 3 3 4 4 3 1 4 9 7 6 7 9 15 13 11 8 2 5 10 9 11 12 14 10 4 4 1 4 5 1 5 5 4 3 1 4 4 3 2 4 4 2 2 2 9 7 7 14 15 15 12 7 6 6 8 7 5 6 7 9 10 10 9 10 9 10 11 13 11 13 11 9 9 8 10 15 14 11 10 9 8 7 7 5
5 6 7 5 4 3 3 3 2 4 2 3 6 7 8 9 10 8 3 3 9 12 14 14 13 13 12 5 7 6 4 4 5 3 4 2 6 6 3 1 3 3 1 1 4 10 13 11 10 13 15 17 16 6 5 6 5 5 8 8 9 10 9 9 9 9 10 10 9 11 10 9 15 14 11 9 9 9 9 10 9 9 9 9 7 7 7
3 1 2 1 3 3 3 5 5 3 6 5 4 6 6 7 7 9 5 9 14 13 13 11 12 13 15 8 5 2 1 2 5 4 4 4 4 3 2 4 4 5 8 9 9 9 8 10 13 13 13 11 6 5 6 6 7 8 8 5 8 10 9 10 10 11 10 11 11 10 10 10 12 11 11 12 9 8 10 9 9 9 8 9 8 7 7
4 2 3 3 5 3 8 5 3 3 2 4 6 6 7 9 10 8 5 7 11 14 15 13 10 7 4 4 3 6 6 2 4 3 2 3 3 3 1 1 2 3 4 8 13 11 11 12 13 14 7 5 6 6 5 6 5 8 7 7 8 11 11 12 12 11 12 13 12 11 11 12 13 12 12 12 9 9 10 10 10 8 8 8 8 7 7
0 3 5 3 1 3 3 5 9 7 5 7 8 10 11 12 11 11 9 9 13 14 16 15 12 9 5 4 6 5 4 4 5 6 4 1 4 7 6 7 6 7 7 8 10 10 12 14 3 4 5 5 5 6 6 7 9 9 9 10 9 11 11 11 12 12 12 11 12 14 13 12 12 12 13 13 13 9 8 9 10 8 8 8 8 8 7
2 0 2 3 3 3 0 6 7 6 5 7 9 10 11 10 10 8 8 11 10 11 7 7 4 5 3 5 2 1 2 2 4 2 5 7 5 3 4 4 7 9 9 8 8 12 12 4 7 5 5 6 4 5 6 5 5 6 5 6 8 10 10 12 12 13 12 11 12 13 13 11 11 10 12 13 10 10 9 8 8 8 8 8 8 8 7
1 1 2 1 5 8 10 11 12 10 8 9 11 11 11 12 14 11 7 10 12 11 9 8 4 5 4 2 3 4 4 3 5 5 6 6 4 5 7 11 10 8 10 12 13 11 4 5 5 4 4 3 4 4 4 7 7 7 7 8 9 9 9 10 12 13 11 11 12 12 12 11 9 9 9 11 12 11 9 8 7 7 7 7 7 8 7
1 3 3 3 0 4 8 6 8 10 14 14 14 11 12 12 12 12 10 13 14 15 12 5 6 4 3 6 5 3 2 4 3 4 3 4 4 7 7 11 13 10 9 7 2 3 4 3 3 3 2 2 4 5 6 7 8 8 9 10 11 12 12 12 14 14 12 11 12 12 11 10 12 10 10 12 11 10 9 8 8 7 7 6 6 7 7
Wind_Direction
208 207 207 205 203 189 180 168 163 157 148 146 183 147 174 195 240 32 170 170 179 161 232 121 200 221 246 40 264 95 195 199 172 165 156 213 198 224 214 205 198 226 219 210 214 169 246 156 212 187 239 245 222 165 148 124 138 58 100 55 164 79 160 230 237 165 97 61 65 38 60 135 134 165 147 190 202 188 199 245 283 283 278 258 261 251 258
209 208 208 205 202 193 180 169 163 160 167 161 142 173 207 192 168 173 230 187 222 170 220 206 218 234 255 235 256 120 242 182 153 218 187 186 177 199 201 100 211 252 162 170 220 157 259 195 195 235 168 210 73 140 137 159 166 178 200 158 169 158 209 159 261 244 172 135 153 149 33 317 213 186 191 201 205 154 241 262 262 256 242 231 242 257 272
209 207 205 205 200 183 179 171 167 170 178 163 154 176 156 106 48 85 143 207 228 213 209 223 237 218 225 212 226 184 232 222 219 205 214 193 181 137 242 203 156 201 166 217 162 196 208 311 220 98 161 140 85 334 125 314 191 343 321 317 306 262 217 163 242 265 274 263 248 186 189 208 215 211 211 222 186 201 154 228 225 243 243 203 224 256 259
207 206 205 200 200 194 182 177 175 175 179 175 175 161 109 188 224 141 354 216 244 273 14 300 237 238 218 236 238 193 229 182 242 218 236 185 182 221 165 60 161 151 149 217 198 220 194 195 241 162 160 145 267 195 77 193 260 308 260 339 136 187 271 232 235 241 246 270 36 104 107 180 214 222 206 213 208 200 206 202 215 232 262 265 248 251 283
209 207 205 203 198 187 183 178 176 177 180 181 177 188 184 147 225 145 178 177 233 243 203 227 194 234 189 240 170 207 219 212 243 178 222 192 194 192 193 182 161 215 167 220 214 205 175 239 177 203 151 131 171 56 163 355 254 268 212 148 78 154 223 227 232 248 258 291 301 40 155 257 257 256 260 239 185 182 187 199 222 260 304 271 260 270 265
209 206 203 203 203 194 185 182 179 179 182 180 175 207 149 209 227 171 180 183 202 203 236 217 230 245 204 239 194 223 213 202 224 145 221 40 206 183 250 206 214 202 197 162 203 170 206 164 221 109 182 125 155 168 168 205 237 220 216 232 207 205 233 265 206 252 255 282 287 281 269 253 249 246 260 259 235 186 186 214 231 246 238 250 273 302 293
209 207 203 197 196 196 189 184 180 177 179 174 192 208 219 191 10 241 173 217 235 201 179 181 208 223 215 241 223 233 221 234 208 169 146 176 226 202 228 220 203 213 183 176 216 169 164 235 188 175 161 175 148 184 168 215 174 196 179 179 240 108 259 181 233 250 255 252 257 260 251 249 249 251 255 259 244 242 237 236 236 236 243 254 272 280 279
209 207 204 201 195 188 185 182 179 179 176 177 197 215 177 196 180 199 280 268 328 223 162 188 194 223 210 221 225 225 224 238 210 209 181 213 229 194 231 233 188 207 198 198 214 204 201 181 162 187 144 194 194 192 177 133 144 163 181 168 262 157 257 107 244 226 244 227 240 247 245 242 248 255 263 258 255 253 250 244 245 248 260 262 265 272 280
210 207 204 201 199 193 186 183 180 179 169 189 203 219 213 179 196 158 151 216 231 220 186 194 194 224 212 216 235 232 232 238 215 225 208 216 207 173 217 219 180 201 201 209 224 207 202 152 175 157 172 185 188 161 221 141 162 172 169 185 242 211 250 101 184 257 257 189 215 247 243 241 243 254 262 260 244 251 247 225 219 216 246 269 281 280 278
210 208 205 202 199 196 192 184 182 178 173 187 188 225 170 83 360 192 174 236 197 208 184 215 191 233 221 205 225 221 231 234 207 250 222 227 228 213 209 201 162 201 200 218 216 167 135 98 84 154 45 37 73 102 153 162 153 168 175 177 168 197 183 181 195 255 259 147 163 217 262 271 264 242 246 246 237 226 237 238 214 231 253 268 261 268 294
211 208 206 203 201 198 193 186 183 179 176 193 189 204 173 195 177 129 197 230 231 221 189 214 209 236 230 203 235 228 244 227 204 218 241 172 219 185 176 166 184 199 213 199 107 98 93 91 78 61 66 66 67 59 109 92 152 160 158 159 186 151 189 183 195 230 112 139 59 228 254 247 240 175 171 178 208 230 233 235 228 233 230 243 260 278 293
212 210 208 205 202 199 195 189 187 184 185 196 191 201 198 181 179 165 184 214 238 211 201 220 215 234 225 227 219 231 231 225 220 210 235 159 324 135 158 178 156 224 110 117 106 98 95 79 77 70 66 59 51 38 53 121 75 121 167 154 165 177 174 207 187 227 245 130 294 278 249 254 104 146 157 183 244 242 240 249 244 247 247 257 267 274 285
214 212 209 206 203 200 197 193 190 190 192 195 194 209 196 179 179 189 200 213 231 214 221 231 230 231 231 229 226 234 240 238 231 219 229 134 182 201 195 169 189 116 152 115 120 113 104 112 88 85 76 72 51 37 2 127 145 163 169 173 150 178 165 175 211 162 331 214 188 235 263 20 334 261 274 157 221 237 249 265 246 225 238 246 264 276 289
216 215 212 209 206 202 199 194 189 192 193 194 200 210 188 160 188 199 197 200 238 222 228 242 240 238 220 226 229 245 213 233 217 186 208 159 164 181 180 39 126 141 143 126 115 120 92 126 124 129 180 100 304 182 215 190 211 180 189 197 165 160 139 173 243 204 192 242 214 246 357 305 277 265 211 155 209 218 262 284 289 219 200 237 254 281 291
218 217 215 213 211 208 204 200 194 196 196 195 201 204 195 184 192 195 196 209 232 223 204 225 228 228 204 221 209 223 222 190 144 235 66 52 78 54 117 102 139 139 142 125 146 141 140 112 159 130 184 151 201 209 128 205 192 194 191 185 166 181 169 217 139 258 155 211 272 281 259 253 208 174 133 86 136 132 245 281 283 229 199 183 239 284 289
219 218 217 215 213 211 209 206 201 199 201 198 202 205 207 196 194 196 190 203 213 235 217 224 228 200 199 217 200 205 208 187 185 100 137 81 96 84 62 122 148 139 121 79 123 135 171 157 187 167 203 173 154 117 217 132 173 172 168 183 178 212 209 220 224 241 91 216 230 226 222 252 152 165 162 139 129 140 140 326 282 183 158 195 239 272 294
220 220 219 218 216 214 212 209 205 203 202 200 205 207 218 196 194 192 194 206 200 236 24 206 157 138 93 65 70 209 188 200 156 155 176 172 127 113 107 114 87 151 154 123 168 127 178 181 187 172 25 147 162 188 115 161 151 143 144 173 196 199 210 196 233 231 219 206 238 250 241 247 239 179 157 144 155 146 201 305 267 131 190 198 203 269 296
219 220 220 219 219 219 218 217 211 204 203 203 205 206 217 199 197 180 198 187 202 235 206 167 141 160 198 186 169 118 95 90 89 65 75 116 129 156 149 136 152 248 208 157 177 163 187 176 185 188 191 171 121 131 207 147 170 171 166 177 174 192 208 210 215 222 228 224 244 283 271 257 245 224 192 148 155 154 187 232 235 140 205 174 201 269 279
218 218 219 220 220 219 219 218 216 212 210 207 209 221 263 184 181 184 173 156 186 218 147 354 130 138 88 68 98 139 141 156 146 124 132 109 186 139 135 343 135 165 201 181 174 182 186 205 141 182 156 173 158 211 142 163 179 151 148 151 176 202 176 255 228 216 224 226 240 242 274 259 247 230 175 143 149 216 223 216 103 158 245 193 239 280 274
221 222 221 222 221 220 220 221 220 216 210 207 204 216 173 181 176 182 182 198 197 182 151 176 182 155 181 146 151 143 137 88 173 149 167 155 131 126 104 100 238 114 154 162 199 193 165 202 165 153 185 179 193 123 295 212 155 164 170 191 164 185 164 206 204 212 226 218 216 322 263 271 186 147 118 184 189 241 262 50 164 144 201 251 249 247 277
221 221 221 222 222 222 222 222 221 217 209 206 204 180 131 168 172 198 208 148 134 125 236 163 102 153 163 180 173 162 157 173 165 177 187 131 157 134 172 208 171 163 184 176 182 193 154 187 170 176 200 160 189 136 196 145 204 212 148 187 207 184 141 213 213 178 162 199 186 205 217 237 157 156 178 186 216 198 202 248 260 161 171 196 248 260 246
222 222 221 222 223 222 223 222 220 219 211 208 204 173 125 156 159 144 108 93 95 73 116 115 80 109 54 55 10 205 187 181 182 161 139 142 195 184 64 107 159 168 181 130 121 102 161 140 78 152 181 171 196 204 162 157 210 162 137 140 212 203 187 193 193 181 159 199 210 216 225 197 195 211 212 189 181 114 191 202 252 233 204 154 224 261 254
223 223 223 223 223 223 222 222 221 219 213 203 195 168 169 144 146 148 123 96 72 80 94 94 103 86 105 39 354 27 50 65 105 148 151 143 182 205 197 155 167 133 86 229 170 138 151 151 183 130 117 195 168 170 206 194 181 161 181 227 125 275 209 29 10 229 251 268 228 223 215 197 210 246 222 195 170 216 158 179 213 240 185 173 233 284 286
227 225 224 224 224 224 224 223 222 218 207 190 180 154 150 155 146 130 90 68 121 112 37 194 126 190 175 180 160 150 82 123 169 165 189 154 153 170 12 287 89 90 205 228 282 124 149 105 184 118 173 185 128 191 183 214 211 172 165 213 205 226 186 176 236 208 181 249 191 209 228 195 203 223 121 26 164 175 177 188 219 160 161 197 242 255 260
226 225 224 223 223 223 223 222 219 210 181 164 153 98 118 139 170 154 152 158 175 166 172 185 195 106 87 108 105 122 182 113 95 145 168 215 169 164 170 153 153 162 167 133 89 89 107 130 170 172 180 228 159 211 220 154 258 157 168 196 131 246 201 151 237 234 223 240 211 239 213 131 209 200 184 199 192 176 178 172 152 137 153 190 219 198 248
224 224 223 221 222 222 222 220 198 165 148 140 145 157 163 172 167 125 69 63 65 78 120 164 167 122 128 121 151 159 163 147 143 152 162 145 100 82 116 108 90 42 77 117 156 145 148 116 145 161 157 257 176 165 209 209 130 185 169 189 195 148 113 200 196 229 242 261 263 252 131 211 227 228 220 212 177 166 171 159 151 168 179 201 205 216 240
222 220 220 220 219 220 191 155 145 152 143 140 126 127 127 137 164 161 157 156 125 44 129 141 138 130 153 147 138 116 142 147 142 140 153 155 164 123 123 126 115 123 123 109 353 111 42 125 169 193 180 226 148 176 147 95 159 164 179 207 179 111 211 171 155 238 234 224 235 215 198 247 221 214 215 183 169 155 157 160 174 192 196 201 203 230 237
222 220 219 218 206 174 153 146 147 141 135 112 102 109 134 136 156 132 129 143 142 152 137 126 132 153 88 67 158 137 152 152 142 125 123 143 148 140 143 138 124 134 153 143 165 181 186 176 209 167 113 194 118 229 171 64 76 172 178 201 201 203 197 170 212 218 234 233 228 177 216 244 241 187 166 152 154 151 161 184 189 190 189 179 192 209 219
222 214 193 165 156 148 148 147 144 142 129 116 111 96 71 83 120 149 120 84 102 108 98 87 84 129 153 189 136 145 165 152 156 143 133 147 153 157 156 159 150 150 153 154 154 148 191 215 152 169 189 210 112 232 139 189 201 203 193 208 207 221 194 204 220 231 249 247 141 175 178 222 204 145 152 163 162 164 176 179 165 162 162 173 190 205 194
182 163 157 145 149 149 145 146 144 137 128 125 118 97 107 228 206 180 155 139 129 123 127 147 129 203 67 83 147 152 151 158 156 155 158 155 164 172 173 163 166 156 140 174 176 179 196 147 214 240 225 248 156 199 195 197 215 217 206 222 223 222 220 230 232 231 242 246 131 178 192 265 53 115 139 143 162 167 168 172 163 158 165 166 187 195 207
155 154 152 150 150 148 147 147 144 140 132 134 126 119 140 174 201 187 164 145 139 107 112 80 114 133 68 289 141 158 157 158 165 164 165 156 134 134 149 136 141 159 162 169 182 196 149 177 186 212 170 200 161 173 203 186 215 224 215 215 223 225 219 229 231 239 253 258 89 69 61 102 119 82 177 181 174 160 130 144 149 155 162 165 188 193 193
150 147 148 146 147 148 147 146 144 143 141 146 161 167 196 237 146 155 157 139 119 94 123 124 124 105 148 158 144 167 151 161 153 152 155 148 143 152 150 172 170 183 162 168 185 164 214 190 191 196 178 200 177 133 190 213 219 235 199 208 222 225 223 223 228 238 245 228 121 205 219 189 187 198 207 168 167 161 149 152 154 157 159 165 175 192 191
122 133 134 139 144 144 144 144 144 131 132 92 69 67 117 118 138 149 148 133 78 111 116 95 129 158 125 174 116 124 147 145 155 158 169 174 158 165 152 164 130 131 215 135 206 189 210 178 182 198 215 163 192 212 214 209 229 231 219 217 220 225 236 208 212 224 224 198 181 206 237 223 196 188 94 137 148 155 153 152 151 145 146 154 180 177 159
141 141 137 137 143 146 142 142 133 117 92 53 35 46 120 132 142 140 135 104 84 105 83 118 137 115 146 167 100 214 162 156 166 165 160 181 150 158 165 158 176 170 243 188 222 157 279 172 197 212 174 199 194 176 251 232 230 234 233 233 226 232 218 193 207 219 220 201 207 233 58 77 91 105 118 134 146 152 146 141 140 139 161 173 181 161 137
149 147 149 147 149 151 148 142 136 126 107 99 64 69 135 139 139 141 137 142 132 160 117 5 116 123 138 125 144 192 149 146 173 169 132 172 146 150 173 149 196 199 237 146 138 206 184 212 175 185 214 161 188 223 240 238 212 222 232 238 223 196 120 206 235 218 207 168 173 142 134 133 126 151 163 161 154 158 150 154 166 153 163 182 170 161 158
155 154 154 150 141 141 133 117 111 125 121 135 135 145 140 137 138 141 124 29 66 141 129 183 136 156 157 153 159 174 131 129 145 120 112 134 58 158 139 134 184 233 135 164 174 200 203 181 156 225 185 172 221 211 233 229 224 226 227 231 209 174 199 205 220 189 147 104 130 114 137 175 192 178 155 163 159 161 162 156 170 183 172 165 176 170 178
157 155 148 139 127 125 132 152 147 73 145 128 135 140 134 121 97 110 18 31 349 49 129 165 143 190 168 145 113 172 141 153 170 118 173 146 151 117 115 181 183 168 63 134 181 197 202 170 174 202 210 210 228 234 246 242 217 229 235 232 211 202 214 221 190 136 122 96 101 165 166 185 215 177 164 178 174 166 167 182 176 171 182 184 171 174 186
153 149 145 149 140 142 142 197 168 150 131 132 135 122 126 132 140 143 118 104 270 69 343 149 155 153 105 126 144 185 126 172 137 132 122 143 109 257 147 118 211 172 156 207 214 140 83 190 221 229 242 238 260 263 251 241 234 232 242 229 217 206 202 160 136 140 139 143 274 238 236 245 240 220 192 197 176 185 193 169 163 175 169 158 157 155 159
160 143 107 74 155 172 161 125 143 137 128 135 122 97 149 170 135 157 167 146 167 163 219 186 179 160 146 111 138 169 137 150 135 152 149 216 119 251 190 139 259 129 285 334 243 155 121 248 280 244 256 199 227 250 247 242 240 238 235 236 225 225 204 169 168 170 188 202 209 198 185 196 213 222 206 201 183 177 158 153 157 162 165 153 147 155 161
140 144 156 162 161 126 119 138 138 123 133 122 191 108 125 178 139 173 171 121 178 171 183 202 172 156 161 152 149 138 164 149 157 164 156 181 237 149 235 98 252 117 188 226 202 125 131 202 242 213 260 195 224 243 250 245 237 241 233 232 219 218 207 184 190 205 206 219 220 209 199 208 203 194 184 189 172 162 160 159 154 151 156 154 155 158 167
139 105 136 137 133 137 136 135 111 83 108 142 110 63 144 144 159 177 142 169 187 199 181 138 134 154 167 153 146 141 148 75 17 78 126 143 200 95 117 175 217 91 231 202 180 91 97 76 246 223 242 216 220 240 243 244 232 240 229 208 193 196 195 202 206 207 210 218 185 149 160 170 169 173 172 171 174 175 162 146 151 152 148 153 159 157 144
170 126 110 98 97 106 118 84 129 125 95 181 124 186 175 137 99 50 199 173 196 150 180 161 174 164 164 152 142 122 120 113 111 111 119 165 207 130 180 119 322 135 213 185 101 72 121 203 234 239 237 238 239 240 242 241 237 230 221 173 183 184 188 195 203 209 206 205 181 147 127 129 128 136 148 150 153 141 137 145 147 148 146 132 116 129 136
103 107 109 110 104 155 167 133 221 129 148 163 125 172 178 159 204 165 189 192 286 114 181 66 78 90 59 103 57 22 133 165 124 169 122 155 103 76 136 154 152 190 187 79 101 124 192 215 229 236 234 237 237 231 229 231 242 214 173 166 176 182 185 193 196 183 153 150 151 147 136 122 111 111 115 120 116 117 118 138 146 144 140 133 136 131 131
117 106 83 67 116 223 145 172 196 84 189 189 159 176 164 145 204 162 173 178 143 125 161 142 152 131 156 136 124 130 105 52 90 86 56 138 99 158 131 191 194 175 54 60 122 199 220 238 229 236 243 244 252 234 228 229 217 179 138 103 116 130 131 118 111 126 124 97 99 116 107 115 117 106 106 116 133 134 133 128 130 129 134 129 130 134 133
128 107 106 132 134 220 116 224 199 128 188 182 166 186 181 182 183 179 170 128 112 147 133 136 147 141 136 128 73 31 141 156 132 106 181 142 91 212 148 196 141 121 150 188 227 295 316 258 236 229 247 248 241 233 217 202 174 184 174 141 154 148 151 158 161 142 134 144 141 132 121 130 109 118 119 120 121 130 136 142 148 139 141 133 131 132 141
164 165 154 136 175 220 157 189 131 140 254 171 187 185 176 179 166 150 164 146 127 140 149 155 145 138 146 177 139 165 115 131 135 178 136 113 153 194 159 61 78 139 163 126 200 220 222 228 223 222 228 232 237 211 160 182 160 139 132 183 186 177 179 162 157 151 148 140 141 136 123 125 125 126 129 128 128 126 127 135 140 138 137 134 146 146 147
115 118 101 151 144 201 118 176 200 184 163 151 155 150 147 142 137 136 152 153 152 153 144 148 145 158 153 161 120 26 92 158 144 175 104 141 166 108 103 140 192 180 185 209 216 228 234 233 234 235 228 225 207 156 164 153 167 172 190 161 150 168 162 155 153 151 150 141 138 135 136 134 126 122 125 116 117 128 132 131 133 140 143 145 146 144 145
161 180 126 148 193 158 161 198 124 75 5 120 147 127 131 123 123 147 191 164 146 143 142 138 127 108 100 322 70 156 145 155 117 229 150 130 73 73 141 78 200 229 200 208 219 214 222 229 230 232 216 163 163 156 160 163 177 189 183 162 157 159 164 160 157 149 150 151 147 138 135 138 140 142 143 137 126 131 137 139 139 136 131 134 141 145 146
201 140 153 167 157 103 141 121 132 138 152 129 133 132 143 150 161 159 155 145 152 161 159 150 158 133 149 144 133 145 182 210 143 189 108 134 151 183 167 186 178 215 230 201 223 219 222 229 211 119 136 153 171 170 179 180 181 185 185 178 171 166 160 160 157 152 153 148 148 147 148 149 145 139 129 123 128 139 142 142 141 143 148 149 149 152 151
136 9 47 93 79 354 133 126 110 112 124 137 144 157 161 154 148 155 154 144 145 127 97 58 50 84 156 123 168 196 174 191 157 136 103 183 172 156 106 195 215 208 207 186 207 229 228 165 131 150 155 161 174 169 148 151 154 153 146 139 138 148 157 151 148 154 155 152 150 147 146 143 145 147 150 150 139 133 135 140 146 149 153 158 155 154 155
264 158 235 260 155 172 147 162 162 149 162 179 171 169 160 161 153 163 173 140 141 139 144 151 152 124 140 90 142 157 214 140 114 188 169 182 161 158 196 209 212 201 216 210 211 221 172 116 143 141 160 169 176 162 141 140 141 139 134 132 137 134 136 143 142 140 143 143 141 139 146 154 147 127 122 125 127 134 139 150 158 157 157 157 162 157 160
137 147 212 182 143 167 180 159 160 169 173 175 171 177 156 160 161 156 161 145 151 159 168 142 126 134 134 178 188 125 66 77 183 140 127 233 167 172 207 209 211 206 206 199 167 71 78 50 49 71 87 149 154 147 131 123 124 129 137 139 142 144 146 145 142 140 140 142 148 148 144 137 137 135 130 131 132 140 151 162 164 159 160 161 158 161 159